Regional Weather Roundup
Issued by NWS

Home | Current Version | Previous Version | Text Only | Print | Product List | Glossary Off
Versions: 1 2 3 4 5 6 7 8 9 10 11 12 13 14 15 16 17 18 19 20 21 22 23 24 25 26 27 28 29 30 31 32 33 34 35 36 37 38 39 40 41 42 43 44 45 46 47 48 49 50

000
ASUS45 KBOU 311907
RWRCO

WEATHER ROUNDUP FOR COLORADO
NATIONAL WEATHER SERVICE DENVER/BOULDER CO
100 PM MDT THU JUL 31 2014

NOTE: "FAIR" INDICATES FEW OR NO CLOUDS BELOW 12000 FEET WITH NO
SIGNIFICANT WEATHER AND/OR OBSTRUCTIONS TO VISIBILITY.

COZ001>005-013-030-031-312000-
...NORTHWEST COLORADO...

CITY           SKY/WX    TMP DP  RH WIND       PRES   REMARKS
CRAIG          MOSUNNY   67  52  58 SE3       30.29F
HAYDEN         MOSUNNY   72  48  43 NE6       30.30F
MEEKER         PTSUNNY   76  50  40 SW9       30.29F
MOUNT WERNER   NOT AVBL
STEAMBOAT SPGS MOSUNNY   70  51  50 N5        30.31F
WALDEN         CLOUDY    64  43  45 N8        30.40F
$$

COZ006>008-011-312000-
...WEST CENTRAL VALLEYS...

CITY           SKY/WX    TMP DP  RH WIND       PRES   REMARKS
GRAND JUNCTION SUNNY     82  55  39 W8        30.17F
MONTROSE       MOSUNNY   77  55  46 S6        30.24F
EAGLE          PTSUNNY   72  54  53 SE7       30.30F
RIFLE          MOSUNNY   78  51  38 MISG      30.21F
DELTA          MOSUNNY   83  55  37 S10       30.18F
NUCLA          MOSUNNY   81  48  32 CALM      30.27F
$$

COZ017>023-064>068-312000-
...SOUTHWEST COLORADO...

CITY           SKY/WX    TMP DP  RH WIND       PRES   REMARKS
DURANGO        PTSUNNY   78  53  41 VRB6      30.26F
CORTEZ         MOSUNNY   83  50  31 SW7       30.21F
PAGOSA SPRINGS CLOUDY    73  49  43 NE3G21    30.34F THUNDER
TELLURIDE      NOT AVBL
WOLF CREEK PAS NOT AVBL
$$

COZ009-010-012-014-032>034-037-058>063-312000-
...CENTRAL COLORADO...

CITY           SKY/WX    TMP DP  RH WIND       PRES   REMARKS
ASPEN          MOSUNNY   71  50  47 NW10G17   30.33F
BUENA VISTA    NOT AVBL
COPPER MTN     CLOUDY    52  45  76 W10       30.64S THUNDER
BERTHOUD PASS  FOG       37  36  93 MISG      30.70S THUNDER VSB<1/4
COTTONWOOD PAS LGT RAIN  55  50  82 CALM      30.51F
GUNNISON       MOSUNNY   72  48  43 S5        30.33F
KREMMLING      MOSUNNY   70  46  43 NW3       30.37F
LEADVILLE      PTSUNNY   55  45  68 SE3       30.48S
MONARCH PASS   HAZE      50  45  81 CALM      30.74S VSB<1/4
SALIDA         CLOUDY    62  55  76 SE12G17   30.44F
SUNLIGHT       CLOUDY    59  52  77 SW5       30.58F
WILKERSON PASS LGT RAIN  45  45 100 E5        30.64S VSB<1/4
$$

COZ069>075-312000-
...SAN LUIS VALLEY/SANGRE DE CRISTO MOUNTAINS...

CITY           SKY/WX    TMP DP  RH WIND       PRES   REMARKS
ALAMOSA        MOSUNNY   71  54  54 SE5       30.33F
LA VETA PASS   RAIN      50  48  93 NE7       30.54F VSB<1/4
SAGUACHE       MOSUNNY   68  52  56 S10       30.37F
$$

COZ035-036-038>040-312000-
...NORTHERN COLORADO FRONT RANGE...

CITY           SKY/WX    TMP DP  RH WIND       PRES   REMARKS
DENVER INTL AP PTSUNNY   70  50  49 VRB3      30.31F
DMNS CITY PARK   N/A     70  50  48 N2        30.31F
AURORA         PTSUNNY   69  53  57 CALM      30.33F
FRONT RANGE AP PTSUNNY   72  52  49 CALM      30.33S
ERIE MUNI ARPT PTSUNNY   73  49  42 CALM      30.30S
BOULDER MUN AP PTSUNNY   73  48  40 E3        30.30S
CENTENNIAL     CLOUDY    66  54  65 VRB5      30.34S
BROOMFIELD     PTSUNNY   70  54  56 VRB6      30.33F
FORT COLLINS   SUNNY     73  54  49 S6        30.28F
LONGMONT       CLOUDY    79  49  35 S5        30.30F
$$

COZ041-046-047-076>085-087-088-312000-
...PIKES PEAK/PALMER DIVIDE AND SOUTHERN FOOTHILLS...

CITY           SKY/WX    TMP DP  RH WIND       PRES   REMARKS
COLO. SPRINGS  DRIZZLE   59  55  87 S5        30.38S
A. F. ACADEMY  DRIZZLE   57  57 100 SE6       30.38S
ELLICOTT       CLOUDY    60  53  77 SW3       30.36S
FALCON         CLOUDY    57  54  90 CALM      30.41F
FORT CARSON    CLOUDY    60  56  88 E5        30.35F
LIMON          PTSUNNY   69  51  52 SW7       30.31F
MONUMENT HILL  LGT RAIN  57  54  88 SE5       30.39F
TRINIDAD       CLOUDY    68  54  60 NE14      30.31F
$$

COZ042>045-048>051-090-091-312000-
...NORTHEAST COLORADO...

CITY           SKY/WX    TMP DP  RH WIND       PRES   REMARKS
GREELEY ARPT   NOT AVBL
AKRON          MOSUNNY   76  48  37 CALM      30.25F
BURLINGTON     MOSUNNY   79  48  33 SW9       30.24F
WRAY             N/A     83  48  29 SW7       30.20F
STERLING       SUNNY     82  57  42 SW5       30.21S
HOLYOKE        MOSUNNY   81  50  34 SW6       30.19F
FORT MORGAN    MOSUNNY   77  52  40 S7        30.26F
$$

COZ086-089-092>099-312000-
...SOUTHEAST COLORADO...

CITY           SKY/WX    TMP DP  RH WIND       PRES   REMARKS
PUEBLO         CLOUDY    68  56  65 E5        30.29F
LA JUNTA       PTSUNNY   71  54  54 VRB3      30.27F
LAMAR          PTSUNNY   75  54  47 SW8       30.23F
SPRINGFIELD      N/A     73  52  47 N3        30.26F
$$



USA.gov is the U.S. government's official web portal to all federal, state and local government web resources and services.